Tracking 19242 objects as of 16-Aug-2018
HD Live streaming from Space Station
objects crossing your sky now

CZ-3B DEB

Track CZ-3B DEB now!


NORAD ID: 39337
Int'l Code: 2010-042J
Perigee: 639.2 km
Apogee: 43,051.4 km
Inclination: 24.2 °
Period: 786.2 minutes
Semi major axis: 28216 km
RCS: 0.027 m2 (small)
Launch date: September 4, 2010
Source: People's Republic of China (PRC)
Launch site: Xichang Space Center, China (XSC)

Note: This is SATELLITE DEBRIS
aabbcc
Your satellite tracking list
Your tracking list is empty




NASA's NSSDC Master Catalog

Two Line Element Set (TLE):
1 39337U 10042J   18226.92296319 +.00000185 +00000-0 +54070-2 0  9994
2 39337 024.2215 164.9824 7515561 066.0064 029.0223 01.83169544030135
Source of the keplerian elements: AFSPC